Aérodrome :
LOGIN :

S'inscrire | Disclaimer

   EN    FR    IT 

 










Légende :    VFR   VFR Marginal   IFR   IFR Intensif   IFR Très Intensif
Visi : 
Plafond : 
>= 8 km
>= 3000ft
5 à 8 km
1000 à 3000 ft
1500m à 5 km
500 à 1000 ft
800 à 1500m
200 à 500 ft
< 800m
< 200 ft
Symboles :   Orages  Brouillard  Fortes neiges  Fortes précipitations  Vent > 20 kt
SIGMETs :   Divers  Orages  Givrage  Turbulence  Onde Orograph.  Cendres Volcan.






- Altitude de l'aérodrome : 751 ft
- Code IATA : ENC


LFSN - Nancy Essey

DERNIER METAR :
  • 301100Z AUTO 23011KT 180V270 7000 -RA OVC008/// ///TCU 03/02 Q1024

METARs EXPIRÉS :
  • 301030Z AUTO 23009KT 180V290 3200 -DZ BR OVC008/// //////TCU 03/01 Q1024
  • 301000Z AUTO 20007KT 170V240 9000 OVC009 03/01 Q1024
  • 300930Z AUTO 18004KT 140V220 8000 OVC009 02/00 Q1024
  • 300900Z AUTO 18006KT 7000 OVC009 01/00 Q1024
  • 300830Z AUTO 23008KT 190V250 4900 -DZ BR OVC010 02/00 Q1025

Prévision TAF périmée.



MET'MAP, la Météo Aéronautique d'un coup d'oeil ! - Copyright ORBIFLY Décembre 2007 - Disclaimer

ORBIFLY MET'MAP TEAM :

Programmation & Développement : Alexandra Zaïnal
Sur une idée originale de : Baudouin d'Aumeries
Soutien technique & logistique : Manuel Goepfert
Assistance : Marc-Olivier Méhu




SOURCES & CREDITS :

   NOAA